2021-033J (48256 NORAD) Tracking and Keplerian Element Data

This shows tracking and keplerian element data for the satellite.

Feedback or suggestion? Click here.




ElementValue
Catalog48256
Name2021-033J
Epoch Orbit300
Epoch Day136.92279222
Epoch Year2021
RAAN212.4455
Inclination97.3929
Eccentricity0.0009025
Argument of Perigee213.9762
Mean Anonmoly232.8844
Mean Motion15.2202541
Decay Rate2.834E-05
L11 48256U 21033J 21136.92279222 .00002834 00000-0 12699-3 0 9999
L22 48256 97.3929 212.4455 0009025 213.9762 232.8844 15.22025410 3001

Live tracking and technical data element details for 2021-033J (NORAD 48256). 2021-033J can be tracked NOW for your location showing map with azimuth and elevation plus other details from your city location.

Track the satellite on the map from your city or location and see movement details for azimuth, elevation, latitude, longitude, range, height, and movement on the map or in text.







IsCatalogInMostPopularTable: catalog: 48256, numindb: 5
Update: records affected: 1



GetName: 48256 2021-033J

Hit Count: updated at: Mon, 17 May 2021 16:54:03 GMT